Date String (YYYY-MM-DD hh:mm:ss) UTC,Instrument flags,Ambient pressure (hPa),Sample flow (lpm),Bypass flow (lpm),Sample temperature (°C),Ambient temperature (°C),ASC tube jacket temperature (°C),LED temperature (°C),Box temperature (°C),Sample RH (%),Span deviation,Mass concentration (μg/m³),Mass concentration (μg/m³),Mass concentration (μg/m³)
DateTimeUTC,F1_M11,P_M11,Q1_M11,Q2_M11,T1_M11,T2_M11,T3_M11,T4_M11,T5_M11,U1_M11,ZSPAN_M11,X0_M11,X2_M11,X1_M11
2022-11-19 03:00:00,,0829.2,5.00,0.00,22.1,20.6,00.0,31.1,23.8,08.1,0000.8,0014.46,0010.42,0009.86
2022-11-19 03:01:00,,0829.2,4.99,0.00,22.0,20.5,00.0,31.1,23.8,08.1,0002.2,0014.11,0010.41,0009.83
2022-11-19 03:02:00,,0829.2,5.01,0.00,22.0,20.7,00.0,31.0,23.8,08.2,0001.7,0014.05,0010.38,0009.80
2022-11-19 03:03:00,,0829.3,5.01,0.00,22.1,21.6,00.0,31.0,24.0,08.1,0000.0,0013.86,0010.29,0009.75
2022-11-19 03:04:00,,0829.3,4.98,0.00,22.2,22.3,00.0,31.0,24.2,08.1,0000.0,0013.99,0010.24,0009.71
2022-11-19 03:05:00,,0829.2,5.01,0.00,22.3,22.2,00.0,31.0,24.2,08.1,0000.0,0014.01,0010.21,0009.67
2022-11-19 03:06:00,,0829.2,5.00,0.00,22.3,21.8,00.0,31.1,24.2,08.1,0000.0,0013.98,0010.17,0009.61
2022-11-19 03:07:00,,0829.2,4.99,0.00,22.2,21.4,00.0,31.1,24.1,08.1,0000.0,0013.91,0010.12,0009.53
2022-11-19 03:08:00,,0829.3,5.00,0.00,22.2,21.2,00.0,31.1,24.0,08.1,0000.0,0013.80,0010.07,0009.48
2022-11-19 03:09:00,,0829.2,4.99,0.00,22.2,20.9,00.0,31.1,23.9,08.1,0000.0,0014.26,0010.05,0009.48
2022-11-19 03:10:00,,0829.3,5.00,0.00,22.1,20.8,00.0,31.1,23.8,08.2,0000.0,0014.37,0010.06,0009.47
2022-11-19 03:11:00,,0829.3,5.02,0.00,22.1,20.6,00.0,31.1,23.7,08.2,0000.0,0014.34,0010.04,0009.45
2022-11-19 03:12:00,,0829.2,5.00,0.00,22.0,20.5,00.0,31.1,23.7,08.2,0000.0,0014.14,0010.02,0009.45
2022-11-19 03:13:00,,0829.3,5.00,0.00,22.0,20.6,00.0,31.0,23.7,08.2,0000.0,0014.25,0010.02,0009.41
2022-11-19 03:14:00,,0829.2,5.01,0.00,22.1,21.5,00.0,31.0,23.9,08.2,0000.0,0014.28,0010.01,0009.39
2022-11-19 03:15:00,,0829.2,4.99,0.00,22.2,22.3,00.0,31.0,24.1,08.2,0000.0,0014.14,0010.02,0009.37
2022-11-19 03:16:00,,0829.2,4.99,0.00,22.3,22.4,00.0,31.0,24.3,08.2,0000.0,0014.56,0010.06,0009.37
2022-11-19 03:17:00,,0829.4,5.00,0.00,22.3,21.9,00.0,31.1,24.2,08.2,0001.8,0014.47,0010.04,0009.36
2022-11-19 03:18:00,,0829.3,5.00,0.00,22.2,21.4,00.0,31.1,24.1,08.2,0001.6,0014.44,0010.05,0009.38
2022-11-19 03:19:00,,0829.4,5.00,0.00,22.2,21.1,00.0,31.1,24.0,08.3,0000.2,0014.41,0010.06,0009.40
2022-11-19 03:20:00,,0829.5,5.02,0.00,22.2,20.9,00.0,31.1,23.9,08.3,0001.9,0014.38,0010.13,0009.46
2022-11-19 03:21:00,,0829.5,5.00,0.00,22.1,20.7,00.0,31.1,23.9,08.4,0002.0,0014.60,0010.25,0009.55
2022-11-19 03:22:00,,0829.5,4.99,0.00,22.1,20.5,00.0,31.1,23.8,08.4,0002.4,0014.79,0010.37,0009.64
2022-11-19 03:23:00,,0829.5,4.99,0.00,22.0,20.4,00.0,31.1,23.7,08.4,0002.3,0014.87,0010.45,0009.72
2022-11-19 03:24:00,,0829.5,5.01,0.00,22.0,20.3,00.0,31.1,23.6,08.5,0002.2,0014.82,0010.50,0009.80
2022-11-19 03:25:00,,0829.5,5.01,0.00,22.0,20.7,00.0,31.0,23.7,08.5,0002.0,0014.97,0010.61,0009.90
2022-11-19 03:26:00,,0829.5,4.99,0.00,22.1,21.6,00.0,30.9,23.9,08.5,0001.8,0015.07,0010.71,0010.01
2022-11-19 03:27:00,,0829.5,4.99,0.00,22.2,22.4,00.0,30.9,24.1,08.5,0001.5,0014.95,0010.78,0010.10
2022-11-19 03:28:00,,0829.5,5.00,0.00,22.2,22.2,00.0,31.0,24.2,08.5,0001.8,0015.28,0010.90,0010.21
2022-11-19 03:29:00,,0829.5,5.01,0.00,22.2,21.7,00.0,31.1,24.2,08.5,0001.8,0015.61,0011.00,0010.33
2022-11-19 03:30:00,,0829.5,4.98,0.00,22.2,21.4,00.0,31.1,24.0,08.5,0001.8,0016.15,0011.11,0010.43
2022-11-19 03:31:00,,0829.5,5.00,0.00,22.2,21.1,00.0,31.1,23.9,08.5,0002.3,0015.94,0011.16,0010.49
2022-11-19 03:32:00,,0829.5,5.01,0.00,22.1,20.9,00.0,31.1,23.9,08.5,0000.8,0015.87,0011.20,0010.52
2022-11-19 03:33:00,,0829.5,5.00,0.00,22.1,20.7,00.0,31.1,23.8,08.6,0000.0,0016.41,0011.23,0010.59
2022-11-19 03:34:00,,0829.5,4.99,0.00,22.0,20.5,00.0,31.1,23.7,08.6,0000.0,0016.66,0011.30,0010.66
2022-11-19 03:35:00,,0829.5,4.99,0.00,22.0,20.4,00.0,31.1,23.7,08.7,0000.0,0016.76,0011.39,0010.76
2022-11-19 03:36:00,,0829.5,5.02,0.00,21.9,20.6,00.0,31.0,23.7,08.7,0000.0,0016.92,0011.46,0010.84
2022-11-19 03:37:00,,0829.5,4.99,0.00,22.0,21.5,00.0,31.0,23.9,08.7,0000.0,0017.12,0011.55,0010.91
2022-11-19 03:38:00,,0829.5,4.99,0.00,22.1,22.3,00.0,30.9,24.1,08.7,0000.0,0017.44,0011.60,0010.99
2022-11-19 03:39:00,,0829.5,5.02,0.00,22.2,22.4,00.0,31.0,24.2,08.6,0000.0,0017.34,0011.67,0011.06
2022-11-19 03:40:00,,0829.5,4.99,0.00,22.2,21.9,00.0,31.0,24.1,08.7,0000.0,0017.14,0011.72,0011.12
2022-11-19 03:41:00,,0829.5,5.00,0.00,22.2,21.5,00.0,31.1,24.1,08.7,0000.0,0017.35,0011.82,0011.20
2022-11-19 03:42:00,,0829.7,5.02,0.00,22.2,21.2,00.0,31.1,24.0,08.8,0000.0,0018.46,0011.92,0011.28
2022-11-19 03:43:00,,0829.6,5.00,0.00,22.1,21.0,00.0,31.1,23.9,08.8,0000.0,0018.79,0012.01,0011.38
2022-11-19 03:44:00,,0829.6,5.00,0.00,22.1,20.8,00.0,31.1,23.9,08.8,0001.4,0018.51,0012.11,0011.45
2022-11-19 03:45:00,,0829.5,4.99,0.00,22.1,20.7,00.0,31.1,23.8,08.9,0002.0,0018.36,0012.15,0011.50
2022-11-19 03:46:00,,0829.6,5.00,0.00,22.0,20.6,00.0,31.1,23.8,08.9,0002.4,0018.51,0012.23,0011.56
2022-11-19 03:47:00,,0829.6,4.99,0.00,22.0,20.6,00.0,31.0,23.8,08.9,0001.2,0018.62,0012.32,0011.63
2022-11-19 03:48:00,,0829.6,5.01,0.00,22.1,21.5,00.0,31.0,23.9,08.9,0000.3,0018.67,0012.42,0011.71
2022-11-19 03:49:00,,0830.0,4.99,0.00,22.2,22.2,00.0,31.0,24.1,08.8,0001.4,0018.48,0012.52,0011.80
2022-11-19 03:50:00,,0829.8,5.00,0.00,22.2,22.0,00.0,31.0,24.2,08.8,0001.0,0018.48,0012.54,0011.83
2022-11-19 03:51:00,,0829.6,5.01,0.00,22.2,21.7,00.0,31.1,24.2,08.8,0000.0,0018.57,0012.59,0011.86
2022-11-19 03:52:00,,0829.6,5.00,0.00,22.2,21.4,00.0,31.1,24.1,08.7,0000.0,0018.32,0012.56,0011.86
2022-11-19 03:53:00,,0829.7,4.98,0.00,22.2,21.2,00.0,31.1,24.1,08.7,0000.0,0017.23,0012.50,0011.82
2022-11-19 03:54:00,,0829.7,5.00,0.00,22.2,21.0,00.0,31.1,24.0,08.6,0000.0,0017.47,0012.40,0011.75
2022-11-19 03:55:00,,0829.8,5.00,0.00,22.2,20.8,00.0,31.1,24.0,08.6,0000.0,0017.36,0012.29,0011.70
2022-11-19 03:56:00,,0829.8,5.00,0.00,22.1,20.7,00.0,31.1,23.9,08.6,0000.0,0017.44,0012.23,0011.64
2022-11-19 03:57:00,,0829.8,5.00,0.00,22.1,20.6,00.0,31.1,23.9,08.6,0000.0,0017.82,0012.17,0011.57
2022-11-19 03:58:00,,0829.8,5.02,0.00,22.1,21.0,00.0,31.1,24.0,08.6,0000.0,0017.75,0012.10,0011.51
2022-11-19 03:59:00,,0829.8,4.99,0.00,22.2,21.9,00.0,31.0,24.1,08.5,0000.0,0017.52,0011.97,0011.41
